Location: Unspecified
(0.0000°N, 0.0000°E)
Time: 02:37:17
(UTC+00:00)

N. Korean satellite - Pass Details

Date: 27 January 2023
Orbit: 408 x 444 km, 97.3° (Epoch: 27 January)

Event Time Altitude Azimuth Distance (km) Brightness Sun altitude
Rises 04:22:56 0° 35° (NE) 2,371 10.2 -25.9°
Reaches altitude 10° 04:25:18 10° 54° (NE) 1,518 9.4 -25.3°
Maximum altitude 04:27:42 19° 102° (ESE) 1,085 9.1 -24.8°
Drops below altitude 10° 04:30:08 10° 149° (SSE) 1,538 9.8 -24.2°
Sets 04:32:33 0° 167° (SSE) 2,417 10.6 -23.6°
